Theta_e
321 321 321 320 319 319 319 320 319 319 320 320 321 321 321 321 321 320 318 319 318 318
320 320 320 319 319 319 319 319 318 319 319 320 320 320 321 322 321 321 320 320 319 319
318 318 320 317 317 318 319 318 318 319 319 319 319 320 321 322 322 321 321 320 319 318
317 317 318 319 319 319 319 318 319 319 320 322 321 321 321 320 321 320 320 319 317 317
312 313 314 317 317 318 320 320 322 321 321 321 321 321 320 319 315 317 316 314 311 313
303 305 306 307 308 313 315 317 317 317 316 316 315 315 313 311 310 310 310 309 308 308
297 299 299 299 303 305 306 306 307 306 306 305 306 305 303 304 305 305 304 302 302 302
295 295 295 294 298 300 300 300 299 300 300 300 300 297 299 299 301 301 299 296 296 295
294 293 292 292 291 291 291 294 295 294 294 295 293 296 296 296 297 296 293 292 290 290
291 290 290 289 290 289 289 290 290 291 292 291 292 295 294 292 292 291 291 289 288 288
289 288 288 289 289 289 291 290 289 289 289 289 290 293 292 290 289 289 289 289 289 288
288 287 288 287 287 287 288 286 286 286 287 287 287 292 291 289 287 287 286 286 287 287
288 287 287 286 285 285 286 286 286 286 286 286 287 291 290 288 286 286 284 285 285 286
287 288 288 284 285 286 286 286 286 285 285 286 286 288 290 290 286 285 285 284 283 284
Wind_Speed
15 10 10 9 8 8 8 8 7 9 10 11 11 10 9 9 9 9 10 14 11 9
12 12 11 9 9 7 6 6 8 10 11 10 9 10 10 9 11 11 12 13 12 10
11 9 9 6 9 10 8 8 8 9 9 8 9 10 11 10 11 12 10 8 10 10
9 9 9 9 9 10 8 7 8 9 10 11 10 10 9 10 9 9 10 9 10 10
6 6 6 7 5 5 8 7 9 8 8 8 8 7 8 8 5 8 7 6 5 7
5 5 4 3 1 1 2 3 4 4 5 5 5 4 1 2 2 3 4 4 4 5
6 6 5 5 5 5 5 5 4 5 5 6 5 4 3 1 1 1 1 2 1 2
6 6 6 6 5 5 5 5 5 5 5 5 5 3 2 0 1 2 1 1 3 2
7 7 6 6 6 7 6 5 5 5 4 4 3 6 7 4 1 2 0 1 5 5
6 7 6 6 6 6 6 5 5 5 4 5 4 6 5 6 4 5 4 4 4 4
7 7 6 6 6 6 5 5 4 4 5 5 4 7 7 8 6 6 5 5 5 5
7 7 6 5 6 5 5 4 4 4 5 5 5 8 8 7 6 6 6 4 4 4
7 7 6 6 6 3 4 5 4 6 6 5 5 9 9 7 3 5 3 4 4 5
6 6 6 5 4 5 7 7 6 7 5 5 5 6 9 8 3 3 3 3 2 3
Wind_Direction
211 212 215 204 199 209 208 208 189 200 209 217 218 215 212 221 227 219 224 234 230 237
207 207 209 203 194 203 207 199 195 201 209 215 214 214 212 224 229 224 227 236 236 234
199 198 207 176 196 201 205 199 197 207 211 214 215 215 214 223 228 230 232 234 238 236
187 192 192 200 207 210 208 198 203 205 213 221 222 224 221 227 232 230 232 228 232 240
168 172 186 203 204 192 210 207 213 215 223 226 222 214 220 231 214 231 239 232 228 251
162 169 188 180 141 158 233 233 228 226 225 228 231 230 222 10 330 320 299 291 262 259
134 129 121 102 89 74 55 53 48 41 37 43 43 53 67 83 188 209 201 276 218 260
115 111 113 111 104 87 72 62 53 55 52 53 58 33 339 176 210 90 105 22 68 42
123 121 114 104 98 93 84 72 69 65 67 59 47 21 27 23 63 83 76 52 35 45
125 118 117 120 118 112 99 94 77 62 62 61 53 53 70 84 84 82 67 88 96 70
129 129 138 124 113 100 85 89 105 100 91 87 48 63 80 88 98 95 91 100 112 116
141 136 134 129 114 95 101 86 68 58 64 74 57 57 62 65 62 71 65 59 68 110
145 136 147 136 113 89 84 98 88 76 65 62 70 58 69 87 89 92 92 72 66 64
135 142 134 113 94 114 112 104 97 93 80 75 78 70 72 72 77 114 112 78 55 36